Regional Weather Roundup
Issued by NWS Wakefield, VA

Home | Current Version | Previous Version | Text Only | Print | Product List | Glossary On
Versions: 1 2 3 4 5 6 7 8 9 10 11 12 13 14 15 16 17 18 19 20 21 22 23 24 25 26 27 28 29 30 31 32 33 34 35 36 37 38 39 40 41 42 43 44 45 46 47 48 49 50
000
ASUS41 KAKQ 100310
RWRAKQ

REGIONAL WEATHER ROUNDUP
NATIONAL WEATHER SERVICE WAKEFIELD VA
1100 PM EDT WED JUL 09 2014

Note: "fair" indicates few or no clouds below 12,000 feet with no
significant weather and/or obstructions to visibility. * = Denotes
station may not report precipitation (e.g., rain,snow,etc.),
thunder or fog.

VAZ042-051-052>054-056-100400-
NORTHERN VIRGINIA

CITY           SKY/WX    TMP DP  RH WIND       PRES   REMARKS
WASH NATIONAL  CLOUDY    74  67  78 SW6       29.99R
DULLES         CLOUDY    70  67  90 S8        29.98R
FORT BELVOIR   CLOUDY    70  68  94 CALM      29.99S
QUANTICO       CLOUDY    73  69  87 S6        29.99R
FREDERICKSBRG* MOCLDY    76  70  81 CALM      29.97S
STAFFORD*      MOCLDY    71  71 100 CALM      30.02S
WARRENTON      CLOUDY    70  70 100 SE6       29.98S
CULPEPER*        N/A    N/A N/A N/A CALM      29.99S
MANASSAS*      MOCLDY   N/A N/A N/A SE7       29.98F
LEESBURG*      CLOUDY    72  72 100 S3        29.99R
WINCHESTER     CLOUDY    75  68  78 SW5       29.99R
$$

VAZ048-049-060>072-079>083-100400-
CENTRAL AND SOUTH CENTRAL VIRGINIA...AND NORTH CENTRAL NORTH CAROLINA

CITY           SKY/WX    TMP DP  RH WIND       PRES   REMARKS
RICHMOND       CLOUDY    77  70  79 S8        30.00R
CHESTERFIELD*  CLOUDY    73  63  68 SW5       30.03R
HANOVER        CLOUDY    77  70  79 SW12      30.01R
TAPPAHANNOCK*  CLOUDY    74  68  80 CALM      30.01R
CHARLOTTSVILLE MOCLDY    72  70  93 NE3       29.99R
ORANGE*        MOCLDY    72  70  94 CALM      30.02R
LOUISA*        CLOUDY    73  70  88 S5        29.99S
FARMVILLE*     LGT RAIN  72  70  94 CALM      29.98F
SOUTH HILL*    LGT RAIN  73  73 100 MISG      30.06F
ROANOKE RAPIDS CLOUDY    72  70  94 CALM      30.03R
RALEIGH        LGT RAIN  75  70  84 S3        30.03R
$$

VAZ088>098-100400-
SOUTHEAST VIRGINIA

CITY           SKY/WX    TMP DP  RH WIND       PRES   REMARKS
NORFOLK        CLOUDY    73  70  90 S5        30.01S
VIRGINIA BEACH LGT RAIN  73  71  93 SE9       30.01S
NORFOLK NAVAL  CLOUDY    74  71  91 S7        30.02S
WEST POINT*    CLOUDY    77  71  83 S6        30.02S
NEWPORT NEWS   CLOUDY    75  70  84 S7        30.01R
LANGLEY AFB    LGT RAIN  73  73 100 S12       30.01R
FORT EUSTIS    DRIZZLE   73  73 100 S6        30.02R
WILLIAMSBURG*  CLOUDY    75  73  94 NW3       30.05R
FRANKLIN*      CLOUDY    72 N/A N/A S5        30.04R
WAKEFIELD      LGT RAIN  73  71  93 CALM      30.04R FOG
$$

VAZ020-022-025-037-045-100400-
WESTERN AND SOUTHWEST VIRGINIA

CITY           SKY/WX    TMP DP  RH WIND       PRES   REMARKS
STAUNTON*      MOCLDY    70  65  84 CALM      30.04R
HOT SPRINGS VA CLOUDY    65  51  60 N3        30.17R
LYNCHBURG      MOCLDY    66  66 100 CALM      30.03S FOG
DANVILLE       NOT AVBL
MARTINSVILLE   FOG       68  66  94 CALM      30.05S VSB 1
ROANOKE        MOCLDY    69  66  90 NW3       30.06R
BLACKSBURG     MOCLDY    66  66 100 N3        30.11S
DUBLIN*        PTCLDY    68  67  98 CALM      30.10S
MARION*        HVY RAIN  67  67  99 SW6       30.15R
HILLSVILLE*    PTCLDY    69  62  78 S3        30.11S
RICHLANDS*     CLOUDY    67  65  93 SE3       30.12R
WISE*          PTCLDY    68  66  94 W6        30.12R
ABINGDON*      MOCLDY    71  67  88 CALM      30.09R
$$

MDZ021>025-VAZ099-100-100400-
SOUTHERN MARYLAND AND THE DELMARVA PENINSULA

CITY           SKY/WX    TMP DP  RH WIND       PRES   REMARKS
PATUXENT RIVER CLOUDY    73  70  90 S9        29.98R
BAY BRIDGE APT   N/A     73  70  88 S5        29.97S
LEONARDTOWN    CLOUDY    70  68  94 SE3       29.99F
DOVER          CLOUDY    75  72  89 S14G22    29.95R
GEORGETOWN     CLOUDY    73  70  90 S14       29.99R
EASTON         CLOUDY    73  73 100 CALM      30.00
CAMBRIDGE      CLOUDY    72  68  88 CALM      29.97S
SALISBURY      CLOUDY    76  71  85 S10       30.00R
OCEAN CITY     LGT RAIN  74  70  87 SW17G25   30.01F
WALLOPS ISLAND LGT RAIN  73  71  93 SW6       30.02F
ACCOMACK*        N/A     72  68  88 S8G16     30.00F
$$

NCZ012>017-030>032-100400-
EASTERN NORTH CAROLINA

CITY           SKY/WX    TMP DP  RH WIND       PRES   REMARKS
ELIZABETH CITY LGT RAIN  73  69  87 SW3       30.06R
AHOSKIE*       CLOUDY    73  70  89 CALM      30.04R
EDENTON*       LGT RAIN  73  70  91 N6        30.07R
CURRITUCK*     CLOUDY    72  69  89 SW5       30.07R
KILL DEVIL HLS CLOUDY    80  74  80 S5        30.05R
MANTEO         CLOUDY    81  74  80 SW14      30.06R
CAPE HATTERAS  CLOUDY    81  78  91 SW14      30.07R
GOLDSBORO      CLOUDY    78  76  95 S3        30.01R
WASHINGTON     MOCLDY    81  74  79 S6        30.04R
GREENVILLE     CLOUDY    77  73  88 S3        30.05R
NEW BERN       PTCLDY    80  74  81 S6        30.06R
WILMINGTON     CLEAR     81  75  82 S10       30.05R
$$

VAZ048-100400-
ELSEWHERE

CITY           SKY/WX    TMP DP  RH WIND       PRES   REMARKS
HARRISBURG PA  PTCLDY    78  69  73 SW12      29.95R
BALTIMORE      MOCLDY    72  66  81 S3        29.97R
ANNAPOLIS      CLOUDY    73  68  84 CALM      29.97R
ANDREWS AFB    CLOUDY    70  67  90 S6        29.98R
WILMINGTON DE  CLOUDY    77  71  82 S8        29.96R
PHILADELPHIA   CLOUDY    80  69  69 SW14G22   29.96R
WILDWOOD NJ*   CLOUDY    72  68  88 S7        29.99R
ATLANTIC CITY  CLOUDY    74  72  93 S7        29.97R FOG
HENDERSON NC   CLOUDY    72  68  89 CALM      30.02S
GREENSBORO     MOCLDY    72  70  93 CALM      30.02S
ROCKY MOUNT    CLOUDY    79  69  71 W3        30.03R
FAYETTEVILLE   MOCLDY    82  69  64 S6        30.02R
CHARLOTTE      MOCLDY    73  68  84 S3        30.04R
$$

VAZ100-100400-
MARINE

STATION/POSITION TIME  TEMP    WIND        PRES    WAVE   SWELL
                       AIR SEA DIR/SP/G            HT/PER HT/PER
                 (UTC) (F)     (DEG/KT/KT) (MB)    (FT/S) (FT/S)
44066 TX TWR #4  0300   72 70  220/ 19/ 29 1014.8F   4/ 8
CAPE MAY NJ      0300   72 73  210/  8/ 13   N/A
LEWES DE         0300   73 69  190/  6/ 11   N/A
15NM E FENWICK I 0300   73 73              1016.0F   3/ 7
OCEAN-CITY-INLET 0300   71 66  210/ 18/ 21   N/A
WACHAPREAGUE VA  0300   75 82  200/ 11/ 15   N/A
THOMAS POINT MD  0300   77 79  200/ 10/ 11 1015.2R
GOOSES REEF MD   0300   76     170/ 12/ 14 1015.3S
COVE POINT MD    0300   75     190/ 12/ 13   N/A
SOLOMONS ISLAND  0300      80                N/A
BISHOPS HEAD MD  0300   78 81  170/ 15/ 17   N/A
PINEY POINT MD   0300          170/ 11/ 12   N/A
POTOMAC MD       0300   78     160/ 10/ 14 1014.6F
CAMBRIDGE MD     0300   72 80  170/  4/  7   N/A
LEWISETTA VA     0300   76 81  170/  5/  5   N/A
RAPPAHANNOCK LGT 0300          150/ 13/ 14   N/A
STINGRAY PT      0300   76     190/ 16/ 17 1014.5F
YORK RVR RNG VA  0300   77     170/ 18/ 21   N/A
YORKTOWN VA      0300   74 80  180/ 10/ 12   N/A
JAMESTOWN VA     0300   73     160/  6/  8   N/A
DOMINION TERM VA 0300   74     150/ 12/ 13   N/A
KIPTOPEKE VA     0300      83  180/ 11/ 14   N/A
CHES BAY BRIDGE  0300   74 74  150/  9/ 11   N/A
CAPE HENRY VA    0300   72     160/  8/ 10   N/A
WILLOUBY STN VA  0300   74     170/ 12/ 13   N/A
S CRANEY ISL VA  0300          170/  8/ 11   N/A
CAPE HENRY BUOY  0300      75                N/A     3/ 5
1ST LANDING BUOY 0300   74     170/  6/ 10 1016.1S
CAPE CHARLES BUO 0300      74                N/A     3/ 5
OFFSHORE WE BUOY 0300      74                N/A     3/ 5
64NM E OF VA BCH 0300   76 76  180/  4/  6 1017.2R   4/ 6   3/ 6
DUCK PIER NC     0300   73 65  110/  5/  6   N/A
44056 DUCK FRF   0300                        N/A     2/ 8
OREGON INLET NC  0300   82 85  200/ 21/ 26   N/A
HATTERAS NC      0300   81 82  210/ 10/ 16   N/A
DIAMOND SHLS NC  0300          VRB 16/ 19  1018.0R   5/ 6   2/ 9
CAPE LOOKOUT NC  0200   81     190/ 16/ 21 1017.5R
$$


USA.gov is the U.S. government's official web portal to all federal, state and local government web resources and services.